Location: Roland
(31.1349°N, 85.4372°W)
Time: 22:26:19
(UTC+00:00)

Tiros 1 - Pass Details

Date: 25 April 2021
Orbit: 630 x 664 km, 48.4° (Epoch: 05 May)

Event Time Altitude Azimuth Distance (km) Brightness Sun altitude
Rises 11:35:41 0° 220° (SW) 2,956 10.1 6.0°
Reaches altitude 10° 11:38:02 10° 218° (SW) 2,043 9.3 6.5°
Maximum altitude 11:42:42 66° 136° (SE) 705 7.7 7.5°
Drops below altitude 10° 11:47:20 10° 55° (NE) 2,029 11.2 8.5°
Sets 11:49:40 0° 53° (NE) 2,935 11.8 9.0°
